Location: Alafon
(8.4500°N, 4.2333°E)
Time: 20:41:00
(UTC+00:00)

Vanguard 2 - Pass Details

Date: 03 August 2021
Orbit: 553 x 2937 km, 32.9° (Epoch: 27 September)

Event Time Altitude Azimuth Distance (km) Brightness Sun altitude
Rises 22:35:53 0° 220° (SW) 5,129 - -58.6°
Reaches altitude 10° 22:40:17 10° 212° (SSW) 3,699 - -59.2°
Maximum altitude 22:47:59 33° 152° (SSE) 1,721 - -60.2°
Drops below altitude 10° 22:53:02 10° 89° (E) 2,399 - -60.8°
Sets 22:55:17 0° 78° (ENE) 3,129 - -61.1°
